Home   Weather   Guayaquil   Past weeks

Flag for Ecuador Past Weather in Guayaquil, Ecuador — Yesterday and Last 2 Weeks

Now
91 °F

Scattered clouds.


Feels Like: 100 °F
Forecast: 72 / 89 °F
Wind: 7 mph from Northwest

Location: Guayaquil / Simon Bolivar

Current Time: Jan 22, 2017 at 1:48:51 pm

Latest Report: Jan 22, 2017 at 1:00 pm


Visibility: N/A

Pressure: 29.86 "Hg

Humidity: 56%

Dew Point: 73 °F

Location of GuayaquilLocation

Past Weather in Guayaquil — Graph

°F

Guayaquil Temperature Yesterday

Maximum temperature yesterday: 88 °F (at 3:00 pm)
Minimum temperature yesterday: 73 °F (at 12:00 am)
Average temperature yesterday: 80 °F

High & Low Weather Summary for the Past Weeks

 TemperatureHumidityPressure
High90 °F (Jan 11, 2:00 pm)100% (Jan 8, 6:00 am)30.01 "Hg (Jan 8, 6:00 am)
Low73 °F (Jan 8, 3:00 am)52% (Jan 11, 2:00 pm)29.71 "Hg (Jan 7, 5:35 pm)
Average80 °F78%29.85 "Hg
* Reported Jan 7 12:00 pm — Jan 22 12:00 pm, Guayaquil, Weather by CustomWeather, © 2017

Note: Actual official high and low records may vary slightly from our data, if they occured in-between our weather recording intervals... More about our weather records

Advertising

Guayaquil Weather History for the Previous 24 Hours

Scroll right to see more
 ConditionsComfort  
Time TempWeatherWind HumidityBarometerVisibility
12:00 pm
Sun, Jan 22
90 °FScattered clouds.6 mph55%29.89 "HgN/A
11:00 am86 °FScattered clouds.10 mph66%29.89 "HgN/A
10:00 am84 °FPassing clouds.8 mph70%29.92 "HgN/A
9:00 am81 °FScattered clouds.8 mph79%29.92 "HgN/A
8:00 am79 °FScattered clouds.8 mph84%29.89 "HgN/A
7:00 am79 °FPartly sunny.5 mph84%29.89 "HgN/A
6:00 am77 °FPassing clouds.5 mph89%29.89 "HgN/A
5:00 am79 °FPassing clouds.5 mph79%29.86 "HgN/A
4:00 am79 °FPassing clouds.3 mph79%29.86 "HgN/A
3:00 am79 °FPassing clouds.5 mph84%29.86 "HgN/A
2:00 am77 °FPassing clouds.6 mph79%29.89 "HgN/A
1:00 am79 °FPassing clouds.3 mph74%29.89 "HgN/A
12:00 am81 °FPassing clouds.1 mph70%29.92 "HgN/A
11:00 pm
Sat, Jan 21
82 °FPartly cloudy.5 mph66%29.92 "HgN/A
10:00 pm82 °FPassing clouds.5 mph62%29.92 "HgN/A
9:00 pm81 °FPassing clouds.6 mph66%29.89 "HgN/A
8:00 pm82 °FPassing clouds.6 mph58%29.89 "HgN/A
7:00 pm82 °FPassing clouds.6 mph62%29.86 "HgN/A
6:00 pm86 °FScattered clouds.5 mph59%29.83 "HgN/A
5:00 pm86 °FBroken clouds.8 mph55%29.83 "HgN/A
4:00 pm88 °FBroken clouds.7 mph55%29.83 "HgN/A
3:00 pm88 °FPartly sunny.8 mph59%29.86 "HgN/A
2:00 pm86 °FPartly sunny.12 mph62%29.89 "HgN/A
1:00 pm86 °FPartly sunny.13 mph59%29.92 "HgN/A
Weather by CustomWeather, © 2017

See weather overviewHow to use our weather pages